Time,TemperatureF,DewpointF,PressureIn,WindDirection,WindDirectionDegrees,WindSpeedMPH,WindSpeedGustMPH,Humidity,HourlyPrecipIn,Conditions,Clouds,dailyrainin,SoftwareType,DateUTC
2013-06-04 00:08:00,58.3,52.5,29.79,SW,225,2.2,-999.0,81,-99.99,,,0.00,Acu-Link.com,2013-06-04 07:08:00,
2013-06-04 00:23:00,58.5,53.4,29.79,South,180,1.7,-999.0,83,-99.99,,,0.00,Acu-Link.com,2013-06-04 07:23:00,
2013-06-04 00:38:00,58.3,52.8,29.79,NNE,22,0.0,-999.0,82,-99.99,,,0.00,Acu-Link.com,2013-06-04 07:38:00,
2013-06-04 00:53:00,57.4,52.6,29.79,ENE,67,0.0,-999.0,84,-99.99,,,0.00,Acu-Link.com,2013-06-04 07:53:00,
2013-06-04 01:10:00,57.6,53.1,29.79,ENE,67,0.0,-999.0,85,-99.99,,,0.00,Acu-Link.com,2013-06-04 08:10:00,
2013-06-04 01:26:00,57.0,52.5,29.79,ESE,112,0.0,-999.0,85,-99.99,,,0.00,Acu-Link.com,2013-06-04 08:26:00,
2013-06-04 01:41:00,57.4,52.9,29.79,NNW,337,0.0,-999.0,85,-99.99,,,0.00,Acu-Link.com,2013-06-04 08:41:00,
2013-06-04 02:11:00,57.4,53.2,29.80,NNE,22,0.0,-999.0,86,-99.99,,,0.00,Acu-Link.com,2013-06-04 09:11:00,
2013-06-04 02:26:00,56.5,52.0,29.80,ENE,67,0.0,-999.0,85,-99.99,,,0.00,Acu-Link.com,2013-06-04 09:26:00,
2013-06-04 02:42:00,55.8,52.0,29.81,NE,45,3.7,-999.0,87,-99.99,,,0.00,Acu-Link.com,2013-06-04 09:42:00,
2013-06-04 02:57:00,55.6,51.8,29.81,East,90,0.0,-999.0,87,-99.99,,,0.00,Acu-Link.com,2013-06-04 09:57:00,
2013-06-04 03:12:00,55.8,52.3,29.81,ENE,67,1.7,-999.0,88,-99.99,,,0.00,Acu-Link.com,2013-06-04 10:12:00,
2013-06-04 03:27:00,55.9,52.4,29.81,North,0,0.0,-999.0,88,-99.99,,,0.00,Acu-Link.com,2013-06-04 10:27:00,
2013-06-04 03:42:00,54.7,51.8,29.80,East,90,2.2,-999.0,90,-99.99,,,0.00,Acu-Link.com,2013-06-04 10:42:00,
2013-06-04 03:58:00,54.9,52.0,29.81,ENE,67,0.0,-999.0,90,-99.99,,,0.00,Acu-Link.com,2013-06-04 10:58:00,
2013-06-04 04:13:00,54.3,52.0,29.81,NE,45,2.7,-999.0,92,-99.99,,,0.00,Acu-Link.com,2013-06-04 11:13:00,
2013-06-04 04:28:00,54.5,52.2,29.81,East,90,1.1,-999.0,92,-99.99,,,0.00,Acu-Link.com,2013-06-04 11:28:00,
2013-06-04 04:43:00,55.0,52.4,29.81,NE,45,2.7,-999.0,91,-99.99,,,0.00,Acu-Link.com,2013-06-04 11:43:00,
2013-06-04 04:58:00,53.8,51.8,29.81,East,90,2.7,-999.0,93,-99.99,,,0.00,Acu-Link.com,2013-06-04 11:58:00,
2013-06-04 05:13:00,53.6,51.9,29.82,NE,45,2.2,-999.0,94,-99.99,,,0.00,Acu-Link.com,2013-06-04 12:13:00,
2013-06-04 05:28:00,53.4,52.0,29.82,East,90,0.0,-999.0,95,-99.99,,,0.00,Acu-Link.com,2013-06-04 12:28:00,
2013-06-04 05:43:00,53.4,52.3,29.82,ESE,112,0.0,-999.0,96,-99.99,,,0.00,Acu-Link.com,2013-06-04 12:43:00,
2013-06-04 05:58:00,53.8,52.4,29.81,East,90,3.7,-999.0,95,-99.99,,,0.00,Acu-Link.com,2013-06-04 12:58:00,
2013-06-04 06:14:00,55.6,52.7,29.82,SE,135,0.0,-999.0,90,-99.99,,,0.00,Acu-Link.com,2013-06-04 13:14:00,
2013-06-04 06:29:00,58.6,53.1,29.82,NE,45,0.0,-999.0,82,-99.99,,,0.00,Acu-Link.com,2013-06-04 13:29:00,
2013-06-04 06:44:00,58.1,53.0,29.82,WNW,292,4.7,-999.0,83,-99.99,,,0.00,Acu-Link.com,2013-06-04 13:44:00,
2013-06-04 06:59:00,57.6,52.5,29.82,NNE,22,3.2,-999.0,83,-99.99,,,0.00,Acu-Link.com,2013-06-04 13:59:00,
2013-06-04 07:14:00,60.3,52.7,29.83,NNE,22,0.0,-999.0,76,-99.99,,,0.00,Acu-Link.com,2013-06-04 14:14:00,
2013-06-04 07:29:00,62.6,53.1,29.82,ENE,67,1.1,-999.0,71,-99.99,,,0.00,Acu-Link.com,2013-06-04 14:29:00,
2013-06-04 07:44:00,62.8,53.3,29.83,SSW,202,2.2,-999.0,71,-99.99,,,0.00,Acu-Link.com,2013-06-04 14:44:00,
2013-06-04 07:59:00,62.2,53.4,29.82,West,270,2.7,-999.0,73,-99.99,,,0.00,Acu-Link.com,2013-06-04 14:59:00,
2013-06-04 08:14:00,63.3,53.3,29.82,South,180,0.0,-999.0,70,-99.99,,,0.00,Acu-Link.com,2013-06-04 15:14:00,
2013-06-04 08:29:00,64.0,53.6,29.82,SE,135,3.7,-999.0,69,-99.99,,,0.00,Acu-Link.com,2013-06-04 15:29:00,
2013-06-04 08:45:00,63.0,53.8,29.82,SE,135,3.2,-999.0,72,-99.99,,,0.00,Acu-Link.com,2013-06-04 15:45:00,
2013-06-04 09:00:00,63.1,54.3,29.82,SW,225,2.7,-999.0,73,-99.99,,,0.00,Acu-Link.com,2013-06-04 16:00:00,
2013-06-04 09:15:00,63.5,54.3,29.82,SW,225,5.3,-999.0,72,-99.99,,,0.00,Acu-Link.com,2013-06-04 16:15:00,
2013-06-04 09:30:00,63.5,54.3,29.83,WSW,247,6.3,-999.0,72,-99.99,,,0.00,Acu-Link.com,2013-06-04 16:30:00,
2013-06-04 09:45:00,63.9,54.7,29.83,SW,225,5.3,-999.0,72,-99.99,,,0.00,Acu-Link.com,2013-06-04 16:45:00,
2013-06-04 10:00:00,63.9,54.7,29.83,South,180,5.3,-999.0,72,-99.99,,,0.00,Acu-Link.com,2013-06-04 17:00:00,
2013-06-04 10:15:00,63.7,54.9,29.82,WSW,247,1.7,-999.0,73,-99.99,,,0.00,Acu-Link.com,2013-06-04 17:15:00,
2013-06-04 10:30:00,66.7,55.0,29.82,South,180,2.2,-999.0,66,-99.99,,,0.00,Acu-Link.com,2013-06-04 17:30:00,
2013-06-04 10:45:00,67.5,55.7,29.82,South,180,4.7,-999.0,66,-99.99,,,0.00,Acu-Link.com,2013-06-04 17:45:00,
2013-06-04 11:01:00,67.5,56.6,29.82,SSW,202,3.7,-999.0,68,-99.99,,,0.00,Acu-Link.com,2013-06-04 18:01:00,
2013-06-04 11:16:00,68.2,56.8,29.82,South,180,4.7,-999.0,67,-99.99,,,0.00,Acu-Link.com,2013-06-04 18:16:00,
2013-06-04 11:46:00,68.2,55.5,29.82,SW,225,5.8,-999.0,64,-99.99,,,0.00,Acu-Link.com,2013-06-04 18:46:00,
2013-06-04 12:01:00,68.7,54.7,29.81,West,270,6.3,-999.0,61,-99.99,,,0.00,Acu-Link.com,2013-06-04 19:01:00,
2013-06-04 12:16:00,69.3,54.3,29.81,WNW,292,6.8,-999.0,59,-99.99,,,0.00,Acu-Link.com,2013-06-04 19:16:00,
2013-06-04 12:31:00,69.1,55.1,29.80,NNW,337,5.8,-999.0,61,-99.99,,,0.00,Acu-Link.com,2013-06-04 19:31:00,
2013-06-04 12:46:00,69.8,56.2,29.80,NW,315,6.8,-999.0,62,-99.99,,,0.00,Acu-Link.com,2013-06-04 19:46:00,
2013-06-04 13:02:00,70.3,55.3,29.80,NNW,337,6.3,-999.0,59,-99.99,,,0.00,Acu-Link.com,2013-06-04 20:02:00,
2013-06-04 13:17:00,71.4,55.4,29.79,NW,315,5.8,-999.0,57,-99.99,,,0.00,Acu-Link.com,2013-06-04 20:17:00,
2013-06-04 13:32:00,71.6,55.1,29.78,West,270,6.3,-999.0,56,-99.99,,,0.00,Acu-Link.com,2013-06-04 20:32:00,
2013-06-04 13:47:00,72.0,55.4,29.79,West,270,7.8,-999.0,56,-99.99,,,0.00,Acu-Link.com,2013-06-04 20:47:00,
2013-06-04 14:02:00,72.7,55.1,29.78,NW,315,6.8,-999.0,54,-99.99,,,0.00,Acu-Link.com,2013-06-04 21:02:00,
2013-06-04 14:17:00,73.0,54.3,29.78,SW,225,8.3,-999.0,52,-99.99,,,0.00,Acu-Link.com,2013-06-04 21:17:00,
2013-06-04 14:32:00,73.0,53.8,29.77,SSW,202,7.8,-999.0,51,-99.99,,,0.00,Acu-Link.com,2013-06-04 21:32:00,
2013-06-04 14:47:00,72.9,53.7,29.78,West,270,4.2,-999.0,51,-99.99,,,0.00,Acu-Link.com,2013-06-04 21:47:00,
2013-06-04 15:02:00,73.8,52.3,29.77,WSW,247,6.3,-999.0,47,-99.99,,,0.00,Acu-Link.com,2013-06-04 22:02:00,
2013-06-04 15:18:00,74.3,52.7,29.76,NNW,337,5.3,-999.0,47,-99.99,,,0.00,Acu-Link.com,2013-06-04 22:18:00,
2013-06-04 15:33:00,74.5,55.2,29.75,WNW,292,5.3,-999.0,51,-99.99,,,0.00,Acu-Link.com,2013-06-04 22:33:00,
2013-06-04 15:48:00,74.3,54.4,29.75,West,270,4.2,-999.0,50,-99.99,,,0.00,Acu-Link.com,2013-06-04 22:48:00,
2013-06-04 16:03:00,74.7,54.8,29.75,West,270,5.3,-999.0,50,-99.99,,,0.00,Acu-Link.com,2013-06-04 23:03:00,
2013-06-04 16:18:00,74.3,54.4,29.74,WNW,292,7.8,-999.0,50,-99.99,,,0.00,Acu-Link.com,2013-06-04 23:18:00,
2013-06-04 16:33:00,74.5,54.1,29.74,West,270,5.8,-999.0,49,-99.99,,,0.00,Acu-Link.com,2013-06-04 23:33:00,
2013-06-04 16:48:00,75.0,54.0,29.73,NNW,337,6.3,-999.0,48,-99.99,,,0.00,Acu-Link.com,2013-06-04 23:48:00,
2013-06-04 17:03:00,75.4,53.8,29.73,WSW,247,5.3,-999.0,47,-99.99,,,0.00,Acu-Link.com,2013-06-05 00:03:00,
2013-06-04 17:18:00,75.6,53.9,29.73,NNW,337,5.8,-999.0,47,-99.99,,,0.00,Acu-Link.com,2013-06-05 00:18:00,
2013-06-04 17:34:00,75.4,52.6,29.72,NNW,337,6.8,-999.0,45,-99.99,,,0.00,Acu-Link.com,2013-06-05 00:34:00,
2013-06-04 17:49:00,75.6,52.7,29.72,WNW,292,4.7,-999.0,45,-99.99,,,0.00,Acu-Link.com,2013-06-05 00:49:00,
2013-06-04 18:04:00,75.4,52.6,29.71,NNW,337,5.3,-999.0,45,-99.99,,,0.00,Acu-Link.com,2013-06-05 01:04:00,
2013-06-04 18:19:00,75.0,53.4,29.71,West,270,6.3,-999.0,47,-99.99,,,0.00,Acu-Link.com,2013-06-05 01:19:00,
2013-06-04 18:34:00,74.8,53.8,29.71,South,180,4.7,-999.0,48,-99.99,,,0.00,Acu-Link.com,2013-06-05 01:34:00,
2013-06-04 18:49:00,75.4,53.8,29.70,West,270,5.3,-999.0,47,-99.99,,,0.00,Acu-Link.com,2013-06-05 01:49:00,
2013-06-04 19:04:00,74.8,53.2,29.71,NNW,337,9.4,-999.0,47,-99.99,,,0.00,Acu-Link.com,2013-06-05 02:04:00,
2013-06-04 19:19:00,73.9,54.1,29.70,WNW,292,4.7,-999.0,50,-99.99,,,0.00,Acu-Link.com,2013-06-05 02:19:00,
2013-06-04 19:34:00,73.9,54.1,29.70,SE,135,5.3,-999.0,50,-99.99,,,0.00,Acu-Link.com,2013-06-05 02:34:00,
2013-06-04 19:50:00,73.9,54.6,29.70,West,270,2.7,-999.0,51,-99.99,,,0.00,Acu-Link.com,2013-06-05 02:50:00,
2013-06-04 20:05:00,72.7,54.0,29.70,WNW,292,7.3,-999.0,52,-99.99,,,0.00,Acu-Link.com,2013-06-05 03:05:00,
2013-06-04 20:20:00,71.6,54.1,29.71,West,270,6.8,-999.0,54,-99.99,,,0.00,Acu-Link.com,2013-06-05 03:20:00,
2013-06-04 20:35:00,70.9,53.9,29.70,West,270,1.7,-999.0,55,-99.99,,,0.00,Acu-Link.com,2013-06-05 03:35:00,
2013-06-04 20:50:00,69.6,52.7,29.71,NE,45,3.2,-999.0,55,-99.99,,,0.00,Acu-Link.com,2013-06-05 03:50:00,
2013-06-04 21:05:00,68.2,51.9,29.71,South,180,1.7,-999.0,56,-99.99,,,0.00,Acu-Link.com,2013-06-05 04:05:00,
2013-06-04 21:20:00,67.3,51.1,29.71,South,180,2.2,-999.0,56,-99.99,,,0.00,Acu-Link.com,2013-06-05 04:20:00,
2013-06-04 21:35:00,66.6,50.4,29.72,SW,225,0.0,-999.0,56,-99.99,,,0.00,Acu-Link.com,2013-06-05 04:35:00,
2013-06-04 21:50:00,65.8,49.2,29.73,ESE,112,0.0,-999.0,55,-99.99,,,0.00,Acu-Link.com,2013-06-05 04:50:00,
2013-06-04 22:06:00,65.5,49.4,29.72,East,90,0.0,-999.0,56,-99.99,,,0.00,Acu-Link.com,2013-06-05 05:06:00,
2013-06-04 22:21:00,64.8,47.3,29.73,NNE,22,4.2,-999.0,53,-99.99,,,0.00,Acu-Link.com,2013-06-05 05:21:00,
2013-06-04 22:36:00,65.7,47.6,29.72,ENE,67,3.2,-999.0,52,-99.99,,,0.00,Acu-Link.com,2013-06-05 05:36:00,
2013-06-04 22:51:00,65.5,47.9,29.73,NNE,22,3.2,-999.0,53,-99.99,,,0.00,Acu-Link.com,2013-06-05 05:51:00,
2013-06-04 23:36:00,64.0,49.8,29.73,NE,45,2.7,-999.0,60,-99.99,,,0.00,Acu-Link.com,2013-06-05 06:36:00,